TimeCET,TemperatureF,Dew PointF,Humidity,Sea Level PressureIn,VisibilityMPH,Wind Direction,Wind SpeedMPH,Gust SpeedMPH,PrecipitationIn,Events,Conditions,WindDirDegrees,DateUTC
6:00 AM,59.0,53.6,82,29.98,6.2,SW,3.5,-,N/A,,Mostly Cloudy,220,2014-01-16 05:00:00
6:30 AM,57.2,51.8,82,29.98,-9999.0,ENE,1.2,-,N/A,,Clear,70,2014-01-16 05:30:00
7:00 AM,56,52,80,29.97,19,Calm,Calm,,,,Mostly Cloudy,,2014-01-16 06:00:00
7:00 AM,55.4,51.8,88,29.98,-9999.0,Calm,Calm,-,N/A,,Clear,0,2014-01-16 06:00:00
7:30 AM,55.4,51.8,88,29.95,-9999.0,Variable,1.2,-,N/A,,Clear,0,2014-01-16 06:30:00
8:00 AM,53.6,51.8,94,29.95,-9999.0,Variable,2.3,-,N/A,,Clear,0,2014-01-16 07:00:00
8:30 AM,53.6,50.0,88,29.95,-9999.0,NW,1.2,-,N/A,,Clear,320,2014-01-16 07:30:00
9:00 AM,53.6,50.0,88,29.98,-9999.0,Calm,Calm,-,N/A,,Clear,0,2014-01-16 08:00:00
9:30 AM,55.4,51.8,88,29.98,-9999.0,Calm,Calm,-,N/A,,Clear,0,2014-01-16 08:30:00
10:00 AM,58,51,71,29.97,19,Calm,Calm,,,,Clear,,2014-01-16 09:00:00
10:00 AM,59.0,53.6,82,29.98,-9999.0,Calm,Calm,-,N/A,,Clear,0,2014-01-16 09:00:00
10:30 AM,60.8,51.8,72,29.98,-9999.0,Calm,Calm,-,N/A,,Clear,0,2014-01-16 09:30:00
11:00 AM,60.8,53.6,77,29.98,-9999.0,Variable,1.2,-,N/A,,Clear,0,2014-01-16 10:00:00
11:30 AM,62.6,53.6,72,29.98,-9999.0,Calm,Calm,-,N/A,,Clear,0,2014-01-16 10:30:00
12:00 PM,62.6,53.6,72,29.95,-9999.0,Calm,Calm,-,N/A,,Clear,0,2014-01-16 11:00:00
12:30 PM,64.4,53.6,68,29.95,-9999.0,Calm,Calm,-,N/A,,Clear,0,2014-01-16 11:30:00
1:00 PM,64,52,55,29.95,31,Calm,Calm,,,,Overcast,,2014-01-16 12:00:00
1:00 PM,64.4,51.8,64,29.95,-9999.0,NW,1.2,-,N/A,,Clear,320,2014-01-16 12:00:00
1:30 PM,66.2,50.0,56,29.92,-9999.0,Variable,1.2,-,N/A,,Clear,0,2014-01-16 12:30:00
2:00 PM,66.2,48.2,52,29.92,-9999.0,West,6.9,-,N/A,,Clear,280,2014-01-16 13:00:00
2:30 PM,62.6,51.8,68,29.92,-9999.0,WNW,10.4,-,N/A,,Clear,300,2014-01-16 13:30:00
3:00 PM,62.6,53.6,72,29.92,-9999.0,West,6.9,-,N/A,,Clear,280,2014-01-16 14:00:00
3:30 PM,60.8,53.6,77,29.92,-9999.0,WNW,9.2,-,N/A,,Clear,300,2014-01-16 14:30:00
4:00 PM,60,53,72,29.92,25,West,8.1,,,,Overcast,280,2014-01-16 15:00:00
4:00 PM,60.8,53.6,77,29.92,6.2,West,8.1,-,N/A,,Partly Cloudy,280,2014-01-16 15:00:00
4:30 PM,60.8,55.4,82,29.92,6.2,West,8.1,-,N/A,,Partly Cloudy,280,2014-01-16 15:30:00
5:00 PM,59.0,53.6,82,29.92,6.2,West,11.5,-,N/A,,Partly Cloudy,260,2014-01-16 16:00:00
5:30 PM,59.0,53.6,82,29.92,6.2,WSW,8.1,-,N/A,,Partly Cloudy,250,2014-01-16 16:30:00
6:00 PM,59.0,53.6,82,29.92,6.2,WSW,8.1,-,N/A,,Partly Cloudy,250,2014-01-16 17:00:00
6:30 PM,59.0,53.6,82,29.92,6.2,West,4.6,-,N/A,,Partly Cloudy,270,2014-01-16 17:30:00
7:00 PM,58,54,83,29.93,9,West,5.8,,,Rain,Light Rain,280,2014-01-16 18:00:00
7:00 PM,59.0,55.4,88,29.92,6.2,West,5.8,-,N/A,Rain,Light Rain,270,2014-01-16 18:00:00
7:30 PM,57.2,55.4,94,29.95,6.2,SW,5.8,-,N/A,Rain,Light Rain,230,2014-01-16 18:30:00
10:00 PM,57,54,84,29.93,19,West,2.3,,,Rain,Light Rain,270,2014-01-16 21:00:00